Philip, SD

9:16 AM MST on December 12, 2017 (GMT -0700)
Philip

Weather History for KPHP - August, 2013

Change the Weather History Date:

Monday, August 26, 2013

  Actual Average Record
Temperature  
Mean Temperature 85 °F 71 °F  
Max Temperature 103 °F 87 °F 113 °F (1970)
Min Temperature 66 °F 56 °F 32 °F (1988)
Degree Days  
Heating Degree Days 0 1  
Month to date heating degree days 0 6  
Since 1 June heating degree days 67 77  
Since 1 July heating degree days 3 14  
Cooling Degree Days 20 7  
Month to date cooling degree days 211 247  
Year to date cooling degree days 692 702  
Since 1 June cooling degree days 671 675  
Growing Degree Days 34 (Base 50)    
Moisture  
Dew Point 61 °F    
Average Humidity 54    
Maximum Humidity 87    
Minimum Humidity 21    
Precipitation  
Precipitation 0.00 in 0.05 in 0.68 in (2016)
Month to date precipitation 1.25 1.25  
Year to date precipitation 10.40 13.13  
Sea Level Pressure  
Sea Level Pressure 29.79 in    
Wind  
Wind Speed 7 mph (West)    
Max Wind Speed 22 mph    
Max Gust Speed 28 mph    
Visibility 10 miles    
Events      
T = Trace of Precipitation, MM = Missing Value Source: NWS Daily Summary

Daily Weather History Graph

Daily Weather History Graph

Search for Another Location

Airport or City:

Trip Planner

Search our weather history database for the weather conditions in past years. The results will help you decide how hot, cold, wet, or windy it might be!

Date:

Astronomy

Aug. 26, 2013 Rise Set
Actual Time 6:03 AM MDT 7:32 PM MDT
Civil Twilight 5:32 AM MDT 8:02 PM MDT
Nautical Twilight 4:56 AM MDT 8:38 PM MDT
Astronomical Twilight 4:17 AM MDT 9:17 PM MDT
Moon 10:29 PM MDT (8/26) 12:21 PM MDT (8/26)
Length of Visible Light 14h 29m
Length of Day
13h 29m
Waning Gibbous, 66% of the Moon is Illuminated
Aug 26
Waning Gibbous
Aug 28
Last Quarter
Sep 5
New
Sep 12
First Quarter
Sep 19
Full

Hourly Weather History & Observations

Time (MDT) Temp. Heat Index Dew Point Humidity Pressure Visibility Wind Dir Wind Speed Gust Speed Precip Events Conditions
12:55 AM 73.0 °F - 63.0 °F 71% 29.83 in 10.0 mi East 4.6 mph - N/A   Clear
1:55 AM 70.0 °F - 64.0 °F 81% 29.81 in 10.0 mi East 5.8 mph - N/A   Clear
2:55 AM 71.1 °F - 64.0 °F 78% 29.80 in 10.0 mi East 3.5 mph - N/A   Clear
3:55 AM 69.1 °F - 64.0 °F 84% 29.81 in 10.0 mi ENE 3.5 mph - N/A   Clear
4:55 AM 68.0 °F - 64.0 °F 87% 29.81 in 10.0 mi Calm Calm - N/A   Clear
5:55 AM 68.0 °F - 63.0 °F 84% 29.81 in 10.0 mi WSW 3.5 mph - N/A   Clear
6:55 AM 68.0 °F - 64.0 °F 87% 29.83 in 10.0 mi West 5.8 mph - N/A   Clear
7:55 AM 73.9 °F - 64.9 °F 73% 29.83 in 10.0 mi West 8.1 mph - N/A   Clear
8:55 AM 79.0 °F - 66.0 °F 64% 29.82 in 10.0 mi West 8.1 mph - N/A   Clear
9:55 AM 86.0 °F 88.2 °F 66.0 °F 51% 29.82 in 10.0 mi WSW 8.1 mph - N/A   Clear
10:55 AM 91.9 °F 94.1 °F 64.9 °F 41% 29.81 in 10.0 mi West 10.4 mph - N/A   Clear
11:55 AM 96.1 °F 97.3 °F 63.0 °F 33% 29.79 in 10.0 mi West 11.5 mph - N/A   Clear
12:55 PM 99.0 °F 98.1 °F 57.0 °F 25% 29.77 in 10.0 mi West 8.1 mph - N/A   Clear
1:55 PM 100.9 °F 99.6 °F 55.0 °F 22% 29.77 in 10.0 mi WSW 16.1 mph 27.6 mph N/A   Clear
2:55 PM 100.0 °F 97.9 °F 54.0 °F 21% 29.76 in 10.0 mi WSW 15.0 mph - N/A   Clear
3:55 PM 100.9 °F 99.1 °F 54.0 °F 21% 29.75 in 10.0 mi SW 12.7 mph - N/A   Clear
4:55 PM 100.0 °F 97.9 °F 53.1 °F 21% 29.75 in 10.0 mi SW 12.7 mph 18.4 mph N/A   Clear
5:55 PM 99.0 °F - 51.1 °F 20% 29.75 in 10.0 mi Calm Calm - N/A   Clear
6:55 PM 93.0 °F 93.0 °F 61.0 °F 34% 29.75 in 10.0 mi North 9.2 mph - N/A   Clear
7:55 PM 84.9 °F 85.0 °F 61.0 °F 44% 29.77 in 10.0 mi North 9.2 mph - N/A   Clear
8:55 PM 81.0 °F 81.6 °F 60.1 °F 49% 29.78 in 10.0 mi Calm Calm - N/A   Clear
9:55 PM 75.0 °F - 60.1 °F 60% 29.79 in 10.0 mi WNW 4.6 mph - N/A   Clear
10:55 PM 72.0 °F - 57.9 °F 61% 29.81 in 10.0 mi Calm Calm - N/A   Clear
11:55 PM 70.0 °F - 59.0 °F 68% 29.81 in 10.0 mi West 4.6 mph - N/A   Clear